User: anonymous   Login
Location: Molalla
(45.1473°N, 122.5770°W)
Time: 05:26:27
(UTC-08:00)
Language:

A-11 Canister half - Orbit

View from above orbital plane
View from above orbital plane
View from above satellite
View from above satellite

Ground track
Ground track

The orbit data is extracted from the following two-line orbital elements,

1    51U 60009C   19321.93912909 -.00000090 +00000-0 -55744-4 0  9999
2    51 047.2131 284.8811 0107452 252.6188 106.2826 12.18274900638184
Epoch (UTC): 17 November 2019 22:32:20
Eccentricity: 0.0107452
inclination: 47.2131°
perigee height: 1514 km
apogee height: 1686 km
right ascension of ascending node: 284.8811°
argument of perigee: 252.6188°
revolutions per day: 12.18274900
mean anomaly at epoch: 106.2826°
orbit number at epoch: 63818

The dashed part of the orbit path shows where the satellite is in the earth's shadow,  

DLR